QPF
0.00 0.00 0.01 0.01 0.01 0.00 0.00 0.00 0.01 0.01 0.00 0.00 0.00 0.00 0.00 0.00 0.00 0.01 0.02 0.03 0.02 0.03 0.03 0.02 0.01 0.01 0.01 0.02 0.03 0.03 0.03 0.03 0.02 0.01 0.02 0.02 0.03 0.04
0.00 0.00 0.01 0.02 0.01 0.00 0.00 0.00 0.00 0.00 0.00 0.00 0.00 0.00 0.00 0.00 0.00 0.01 0.02 0.01 0.01 0.02 0.02 0.01 0.01 0.00 0.00 0.00 0.01 0.02 0.03 0.04 0.02 0.02 0.02 0.02 0.02 0.03
0.00 0.00 0.00 0.01 0.00 0.00 0.00 0.00 0.00 0.00 0.00 0.00 0.00 0.00 0.00 0.00 0.00 0.00 0.00 0.00 0.02 0.03 0.01 0.01 0.01 0.01 0.01 0.00 0.00 0.01 0.01 0.02 0.01 0.01 0.01 0.02 0.02 0.02
0.01 0.00 0.00 0.00 0.00 0.00 0.00 0.00 0.00 0.00 0.00 0.00 0.00 0.01 0.00 0.00 0.00 0.00 0.00 0.00 0.01 0.02 0.02 0.01 0.01 0.01 0.01 0.00 0.00 0.01 0.01 0.01 0.00 0.00 0.00 0.01 0.01 0.01
0.00 0.00 0.00 0.00 0.01 0.01 0.00 0.00 0.00 0.00 0.00 0.00 0.00 0.00 0.00 0.00 0.00 0.00 0.00 0.00 0.00 0.00 0.01 0.01 0.01 0.01 0.01 0.01 0.01 0.00 0.00 0.00 0.00 0.00 0.00 0.00 0.00 0.00
0.00 0.00 0.00 0.00 0.01 0.01 0.01 0.00 0.00 0.00 0.00 0.00 0.00 0.00 0.00 0.00 0.00 0.00 0.00 0.00 0.01 0.01 0.01 0.01 0.01 0.01 0.01 0.01 0.01 0.00 0.00 0.00 0.00 0.00 0.00 0.00 0.00 0.00
0.01 0.01 0.00 0.01 0.01 0.01 0.00 0.01 0.00 0.00 0.00 0.00 0.00 0.00 0.00 0.00 0.00 0.00 0.01 0.01 0.01 0.01 0.01 0.01 0.01 0.01 0.00 0.00 0.00 0.00 0.00 0.00 0.01 0.01 0.01 0.01 0.01 0.01
0.01 0.01 0.00 0.00 0.01 0.01 0.00 0.00 0.00 0.00 0.00 0.00 0.00 0.00 0.00 0.00 0.00 0.00 0.02 0.02 0.02 0.01 0.00 0.01 0.01 0.01 0.00 0.00 0.00 0.00 0.01 0.01 0.01 0.01 0.01 0.01 0.01 0.01
0.00 0.01 0.01 0.01 0.01 0.01 0.01 0.00 0.00 0.00 0.00 0.00 0.01 0.01 0.01 0.00 0.00 0.00 0.00 0.01 0.01 0.02 0.01 0.01 0.01 0.01 0.01 0.00 0.01 0.01 0.01 0.02 0.02 0.02 0.01 0.01 0.01 0.01
0.01 0.01 0.00 0.01 0.01 0.01 0.01 0.00 0.00 0.01 0.01 0.00 0.01 0.01 0.01 0.01 0.00 0.00 0.00 0.00 0.00 0.01 0.01 0.01 0.01 0.01 0.01 0.01 0.01 0.01 0.01 0.02 0.01 0.01 0.01 0.01 0.00 0.00
0.01 0.01 0.01 0.01 0.02 0.02 0.00 0.00 0.00 0.01 0.01 0.01 0.01 0.01 0.01 0.00 0.00 0.00 0.00 0.00 0.00 0.00 0.00 0.00 0.00 0.00 0.00 0.00 0.00 0.01 0.01 0.01 0.01 0.01 0.01 0.01 0.01 0.00
0.01 0.01 0.02 0.01 0.01 0.01 0.00 0.00 0.00 0.01 0.01 0.00 0.00 0.00 0.01 0.01 0.01 0.00 0.00 0.00 0.00 0.00 0.00 0.00 0.00 0.00 0.00 0.00 0.00 0.00 0.00 0.00 0.00 0.00 0.00 0.01 0.01 0.01
0.01 0.01 0.01 0.01 0.01 0.00 0.00 0.00 0.00 0.00 0.00 0.00 0.00 0.00 0.00 0.00 0.00 0.00 0.00 0.00 0.00 0.00 0.00 0.00 0.00 0.00 0.00 0.00 0.00 0.00 0.00 0.00 0.00 0.00 0.00 0.01 0.01 0.01
0.01 0.01 0.01 0.00 0.00 0.00 0.00 0.00 0.00 0.00 0.00 0.00 0.01 0.01 0.01 0.01 0.00 0.00 0.00 0.00 0.00 0.00 0.00 0.00 0.00 0.00 0.00 0.00 0.00 0.00 0.00 0.00 0.00 0.00 0.00 0.00 0.00 0.01
0.00 0.00 0.00 0.00 0.00 0.00 0.00 0.00 0.00 0.00 0.00 0.00 0.01 0.01 0.01 0.01 0.01 0.00 0.00 0.00 0.00 0.00 0.00 0.00 0.00 0.00 0.00 0.01 0.01 0.01 0.01 0.01 0.01 0.01 0.01 0.01 0.01 0.01
0.01 0.01 0.01 0.01 0.00 0.00 0.00 0.00 0.00 0.00 0.00 0.01 0.01 0.01 0.00 0.00 0.00 0.00 0.00 0.00 0.00 0.00 0.00 0.00 0.00 0.00 0.00 0.00 0.01 0.01 0.01 0.01 0.01 0.01 0.01 0.01 0.02 0.02
0.03 0.02 0.02 0.01 0.01 0.01 0.01 0.01 0.01 0.00 0.00 0.00 0.00 0.01 0.01 0.01 0.00 0.00 0.00 0.00 0.00 0.00 0.00 0.00 0.00 0.00 0.00 0.01 0.01 0.01 0.01 0.01 0.00 0.00 0.00 0.00 0.00 0.00
0.03 0.03 0.03 0.03 0.02 0.02 0.02 0.01 0.01 0.00 0.00 0.00 0.01 0.01 0.01 0.01 0.01 0.01 0.01 0.00 0.00 0.00 0.00 0.00 0.00 0.00 0.00 0.00 0.01 0.01 0.01 0.00 0.00 0.00 0.00 0.00 0.00 0.00
0.02 0.02 0.02 0.02 0.02 0.02 0.01 0.01 0.01 0.01 0.01 0.01 0.01 0.01 0.01 0.01 0.01 0.01 0.00 0.00 0.00 0.00 0.00 0.00 0.00 0.00 0.00 0.00 0.00 0.00 0.00 0.00 0.00 0.00 0.00 0.00 0.00 0.00
0.02 0.01 0.01 0.02 0.02 0.01 0.01 0.01 0.01 0.01 0.01 0.01 0.01 0.01 0.01 0.00 0.00 0.00 0.00 0.00 0.00 0.00 0.00 0.00 0.00 0.00 0.01 0.01 0.00 0.00 0.00 0.00 0.00 0.00 0.00 0.00 0.00 0.00
0.02 0.02 0.02 0.02 0.01 0.01 0.01 0.01 0.02 0.02 0.02 0.02 0.02 0.02 0.01 0.01 0.01 0.01 0.01 0.01 0.01 0.01 0.00 0.00 0.00 0.00 0.00 0.01 0.00 0.00 0.00 0.00 0.00 0.00 0.00 0.00 0.00 0.00
0.04 0.04 0.03 0.01 0.01 0.01 0.01 0.01 0.01 0.01 0.01 0.01 0.01 0.02 0.02 0.02 0.02 0.02 0.01 0.01 0.01 0.01 0.01 0.01 0.01 0.01 0.01 0.01 0.01 0.01 0.00 0.00 0.00 0.00 0.00 0.00 0.01 0.01
0.02 0.02 0.02 0.02 0.01 0.01 0.01 0.01 0.01 0.01 0.01 0.01 0.01 0.02 0.02 0.02 0.02 0.02 0.02 0.02 0.02 0.02 0.02 0.01 0.01 0.01 0.01 0.01 0.01 0.01 0.00 0.00 0.00 0.00 0.00 0.00 0.00 0.00
MSLP
1018.35 1018.31 1018.31 1018.37 1018.47 1018.58 1018.70 1018.81 1018.90 1018.97 1019.03 1019.08 1019.15 1019.23 1019.33 1019.44 1019.57 1019.70 1019.82 1019.91 1019.98 1020.01 1020.01 1019.97 1019.90 1019.79 1019.66 1019.49 1019.29 1019.07 1018.84 1018.59 1018.32 1018.06 1017.80 1017.55 1017.29 1017.04
1018.79 1018.70 1018.64 1018.62 1018.63 1018.67 1018.73 1018.81 1018.89 1018.98 1019.08 1019.20 1019.34 1019.50 1019.68 1019.87 1020.06 1020.24 1020.39 1020.51 1020.59 1020.64 1020.64 1020.61 1020.55 1020.45 1020.33 1020.18 1020.00 1019.80 1019.57 1019.33 1019.06 1018.77 1018.48 1018.18 1017.87 1017.55
1019.30 1019.20 1019.11 1019.05 1019.02 1019.02 1019.05 1019.10 1019.18 1019.29 1019.42 1019.58 1019.77 1019.98 1020.20 1020.41 1020.62 1020.80 1020.95 1021.06 1021.13 1021.16 1021.16 1021.14 1021.08 1021.01 1020.93 1020.82 1020.69 1020.53 1020.34 1020.11 1019.85 1019.56 1019.24 1018.89 1018.53 1018.15
1019.88 1019.80 1019.72 1019.66 1019.63 1019.62 1019.65 1019.71 1019.80 1019.92 1020.07 1020.25 1020.45 1020.66 1020.87 1021.07 1021.24 1021.39 1021.49 1021.55 1021.58 1021.58 1021.56 1021.53 1021.49 1021.45 1021.41 1021.36 1021.29 1021.19 1021.06 1020.87 1020.64 1020.35 1020.01 1019.63 1019.21 1018.77
1020.51 1020.47 1020.44 1020.42 1020.42 1020.45 1020.50 1020.58 1020.68 1020.81 1020.97 1021.14 1021.32 1021.50 1021.67 1021.80 1021.91 1021.97 1022.00 1021.99 1021.95 1021.89 1021.84 1021.80 1021.77 1021.77 1021.78 1021.79 1021.79 1021.76 1021.68 1021.55 1021.34 1021.06 1020.71 1020.30 1019.84 1019.35
1021.17 1021.20 1021.24 1021.29 1021.35 1021.42 1021.52 1021.63 1021.75 1021.89 1022.03 1022.18 1022.32 1022.44 1022.54 1022.59 1022.60 1022.56 1022.49 1022.39 1022.27 1022.15 1022.06 1022.00 1021.98 1021.99 1022.04 1022.11 1022.16 1022.19 1022.16 1022.07 1021.89 1021.63 1021.27 1020.84 1020.35 1019.82
1021.85 1021.97 1022.09 1022.21 1022.34 1022.48 1022.61 1022.75 1022.89 1023.03 1023.16 1023.27 1023.36 1023.41 1023.43 1023.39 1023.30 1023.17 1022.99 1022.80 1022.60 1022.42 1022.28 1022.19 1022.15 1022.18 1022.24 1022.34 1022.43 1022.49 1022.49 1022.42 1022.26 1022.00 1021.64 1021.20 1020.70 1020.15
1022.55 1022.75 1022.95 1023.15 1023.35 1023.53 1023.71 1023.87 1024.01 1024.14 1024.24 1024.32 1024.36 1024.35 1024.30 1024.18 1024.02 1023.80 1023.55 1023.27 1023.01 1022.77 1022.58 1022.45 1022.39 1022.39 1022.44 1022.53 1022.62 1022.68 1022.68 1022.61 1022.44 1022.18 1021.82 1021.37 1020.86 1020.32
1023.27 1023.54 1023.81 1024.07 1024.32 1024.54 1024.74 1024.90 1025.04 1025.15 1025.23 1025.27 1025.27 1025.23 1025.12 1024.96 1024.75 1024.48 1024.17 1023.85 1023.53 1023.24 1023.01 1022.83 1022.72 1022.68 1022.70 1022.74 1022.78 1022.80 1022.77 1022.67 1022.47 1022.19 1021.81 1021.37 1020.87 1020.34
1024.01 1024.34 1024.67 1024.97 1025.24 1025.48 1025.68 1025.83 1025.95 1026.04 1026.10 1026.12 1026.10 1026.03 1025.91 1025.74 1025.51 1025.22 1024.90 1024.55 1024.20 1023.88 1023.59 1023.36 1023.20 1023.09 1023.03 1022.99 1022.96 1022.91 1022.81 1022.64 1022.40 1022.08 1021.69 1021.24 1020.76 1020.25
1024.77 1025.15 1025.51 1025.84 1026.12 1026.35 1026.53 1026.66 1026.76 1026.82 1026.86 1026.86 1026.84 1026.78 1026.67 1026.51 1026.29 1026.02 1025.71 1025.36 1025.00 1024.65 1024.32 1024.03 1023.79 1023.60 1023.44 1023.31 1023.18 1023.03 1022.83 1022.59 1022.29 1021.93 1021.52 1021.07 1020.60 1020.12
1025.55 1025.97 1026.35 1026.68 1026.95 1027.16 1027.32 1027.42 1027.48 1027.52 1027.54 1027.54 1027.52 1027.48 1027.40 1027.27 1027.09 1026.85 1026.56 1026.22 1025.86 1025.48 1025.11 1024.77 1024.45 1024.17 1023.91 1023.67 1023.43 1023.17 1022.89 1022.56 1022.20 1021.79 1021.36 1020.91 1020.45 1019.99
1026.33 1026.77 1027.16 1027.49 1027.75 1027.93 1028.06 1028.13 1028.16 1028.18 1028.18 1028.19 1028.18 1028.16 1028.11 1028.01 1027.87 1027.66 1027.39 1027.07 1026.70 1026.30 1025.89 1025.49 1025.10 1024.73 1024.38 1024.04 1023.70 1023.35 1022.98 1022.58 1022.16 1021.72 1021.26 1020.80 1020.35 1019.91
1027.09 1027.55 1027.94 1028.26 1028.50 1028.66 1028.76 1028.80 1028.82 1028.81 1028.81 1028.81 1028.81 1028.81 1028.78 1028.71 1028.58 1028.40 1028.14 1027.82 1027.44 1027.02 1026.58 1026.12 1025.67 1025.23 1024.79 1024.37 1023.95 1023.53 1023.10 1022.65 1022.19 1021.72 1021.25 1020.79 1020.34 1019.90
1027.80 1028.26 1028.66 1028.97 1029.20 1029.35 1029.43 1029.46 1029.46 1029.44 1029.43 1029.43 1029.43 1029.42 1029.39 1029.33 1029.21 1029.03 1028.76 1028.43 1028.03 1027.58 1027.10 1026.60 1026.10 1025.60 1025.11 1024.64 1024.17 1023.70 1023.23 1022.76 1022.28 1021.80 1021.33 1020.87 1020.42 1019.99
1028.43 1028.90 1029.29 1029.61 1029.84 1029.98 1030.06 1030.09 1030.08 1030.06 1030.04 1030.03 1030.02 1030.00 1029.95 1029.87 1029.73 1029.52 1029.24 1028.88 1028.45 1027.97 1027.45 1026.91 1026.37 1025.83 1025.31 1024.81 1024.32 1023.84 1023.36 1022.89 1022.42 1021.95 1021.49 1021.03 1020.59 1020.15
1028.98 1029.44 1029.83 1030.16 1030.40 1030.56 1030.65 1030.68 1030.69 1030.67 1030.64 1030.61 1030.58 1030.53 1030.46 1030.34 1030.16 1029.91 1029.58 1029.18 1028.71 1028.19 1027.64 1027.08 1026.51 1025.96 1025.42 1024.91 1024.42 1023.95 1023.49 1023.03 1022.59 1022.14 1021.70 1021.26 1020.82 1020.38
1029.43 1029.89 1030.29 1030.63 1030.89 1031.07 1031.19 1031.25 1031.27 1031.26 1031.22 1031.18 1031.12 1031.03 1030.91 1030.74 1030.51 1030.21 1029.83 1029.39 1028.88 1028.33 1027.75 1027.16 1026.58 1026.01 1025.48 1024.97 1024.49 1024.04 1023.61 1023.18 1022.77 1022.35 1021.94 1021.52 1021.10 1020.66
1029.82 1030.27 1030.68 1031.04 1031.33 1031.55 1031.70 1031.79 1031.83 1031.83 1031.79 1031.73 1031.64 1031.52 1031.35 1031.13 1030.84 1030.49 1030.07 1029.58 1029.03 1028.45 1027.85 1027.24 1026.65 1026.08 1025.54 1025.04 1024.58 1024.15 1023.74 1023.35 1022.96 1022.58 1022.19 1021.80 1021.39 1020.95
1030.18 1030.63 1031.05 1031.43 1031.75 1032.01 1032.19 1032.31 1032.37 1032.39 1032.35 1032.28 1032.16 1032.00 1031.79 1031.52 1031.19 1030.79 1030.33 1029.81 1029.24 1028.64 1028.02 1027.40 1026.79 1026.22 1025.68 1025.18 1024.73 1024.30 1023.91 1023.54 1023.17 1022.81 1022.45 1022.07 1021.67 1021.25
1030.55 1031.00 1031.44 1031.84 1032.19 1032.47 1032.69 1032.83 1032.92 1032.94 1032.90 1032.81 1032.67 1032.49 1032.24 1031.94 1031.58 1031.15 1030.67 1030.13 1029.55 1028.93 1028.31 1027.68 1027.07 1026.49 1025.94 1025.43 1024.97 1024.54 1024.15 1023.78 1023.42 1023.07 1022.71 1022.34 1021.95 1021.53
1030.95 1031.41 1031.86 1032.27 1032.64 1032.95 1033.19 1033.35 1033.45 1033.47 1033.44 1033.34 1033.18 1032.97 1032.71 1032.38 1032.00 1031.57 1031.08 1030.54 1029.96 1029.35 1028.73 1028.10 1027.49 1026.90 1026.34 1025.82 1025.34 1024.89 1024.48 1024.10 1023.72 1023.36 1023.00 1022.62 1022.23 1021.81
1031.40 1031.87 1032.33 1032.75 1033.13 1033.45 1033.69 1033.86 1033.96 1033.98 1033.94 1033.83 1033.66 1033.44 1033.16 1032.83 1032.46 1032.03 1031.55 1031.03 1030.47 1029.87 1029.27 1028.65 1028.04 1027.45 1026.88 1026.34 1025.84 1025.37 1024.93 1024.51 1024.12 1023.73 1023.34 1022.95 1022.54 1022.11
Thickness
5685 5684 5683 5682 5681 5680 5679 5678 5676 5673 5671 5670 5668 5666 5664 5662 5661 5661 5660 5656 5655 5654 5653 5653 5652 5651 5650 5650 5649 5648 5648 5648 5647 5646 5646 5646 5645 5645
5681 5681 5680 5680 5678 5677 5676 5675 5675 5673 5669 5668 5665 5664 5661 5660 5657 5657 5655 5653 5651 5649 5648 5647 5646 5645 5644 5643 5642 5641 5640 5639 5638 5638 5637 5637 5636 5636
5681 5679 5678 5677 5676 5675 5673 5672 5671 5669 5665 5664 5663 5660 5658 5656 5654 5653 5652 5650 5648 5644 5643 5641 5640 5639 5637 5636 5635 5634 5632 5631 5630 5629 5629 5628 5628 5627
5678 5677 5676 5674 5672 5672 5670 5669 5667 5666 5663 5659 5658 5656 5654 5652 5650 5648 5647 5645 5643 5639 5637 5635 5633 5632 5630 5629 5627 5625 5624 5623 5622 5621 5620 5620 5619 5618
5675 5674 5673 5672 5669 5668 5666 5665 5663 5661 5659 5656 5653 5650 5649 5647 5645 5643 5642 5640 5638 5635 5632 5629 5626 5624 5622 5621 5619 5617 5615 5614 5613 5612 5611 5610 5609 5609
5672 5670 5669 5667 5665 5664 5662 5660 5658 5655 5653 5651 5648 5646 5643 5641 5640 5638 5637 5635 5632 5630 5626 5624 5620 5618 5615 5613 5611 5609 5607 5605 5603 5602 5601 5600 5599 5599
5668 5666 5663 5660 5657 5656 5656 5654 5653 5650 5648 5645 5643 5641 5638 5635 5633 5632 5631 5629 5627 5623 5621 5619 5616 5613 5609 5605 5602 5599 5597 5596 5594 5592 5591 5590 5589 5588
5664 5662 5659 5655 5651 5648 5646 5645 5644 5644 5643 5640 5638 5635 5632 5629 5626 5625 5624 5622 5620 5616 5613 5612 5608 5605 5601 5597 5592 5590 5588 5586 5584 5582 5581 5579 5578 5577
5660 5657 5654 5651 5648 5646 5642 5638 5636 5633 5632 5634 5631 5629 5626 5624 5620 5618 5616 5614 5611 5608 5604 5604 5601 5597 5592 5588 5584 5581 5579 5576 5574 5572 5570 5568 5567 5566
5654 5652 5650 5647 5643 5641 5639 5636 5633 5630 5627 5625 5624 5621 5618 5615 5613 5611 5609 5607 5605 5599 5595 5595 5593 5589 5585 5580 5575 5572 5569 5566 5564 5561 5559 5557 5556 5554
5649 5646 5644 5641 5636 5633 5633 5632 5629 5625 5620 5616 5613 5610 5607 5604 5602 5602 5600 5599 5598 5594 5587 5584 5584 5580 5577 5573 5568 5564 5560 5557 5554 5551 5548 5546 5545 5544
5644 5641 5636 5634 5630 5627 5628 5626 5623 5620 5617 5612 5608 5604 5601 5598 5594 5593 5591 5589 5589 5586 5579 5574 5574 5572 5570 5566 5560 5556 5552 5548 5545 5541 5538 5535 5533 5532
5639 5636 5632 5627 5624 5621 5620 5619 5616 5613 5611 5607 5604 5600 5596 5592 5588 5584 5581 5579 5577 5574 5568 5564 5563 5561 5559 5556 5552 5547 5542 5539 5535 5532 5528 5525 5521 5519
5633 5631 5627 5621 5618 5615 5612 5610 5607 5604 5603 5600 5596 5592 5589 5584 5580 5576 5572 5568 5565 5561 5557 5554 5552 5548 5547 5545 5543 5538 5532 5528 5524 5521 5518 5515 5512 5509
5626 5622 5619 5615 5612 5609 5605 5602 5600 5598 5596 5593 5589 5585 5581 5577 5572 5567 5564 5559 5555 5550 5546 5543 5540 5537 5535 5533 5531 5527 5523 5518 5513 5510 5507 5505 5503 5500
5618 5615 5611 5607 5605 5603 5600 5596 5593 5591 5588 5585 5582 5577 5573 5568 5564 5559 5555 5551 5547 5542 5537 5533 5529 5526 5524 5521 5519 5515 5512 5508 5504 5500 5497 5494 5492 5489
5615 5612 5609 5605 5601 5598 5595 5591 5588 5584 5580 5577 5573 5570 5565 5561 5556 5552 5547 5543 5540 5535 5530 5525 5520 5516 5513 5511 5508 5505 5500 5496 5493 5489 5486 5484 5481 5478
5608 5607 5604 5600 5597 5593 5590 5586 5582 5578 5574 5571 5567 5563 5558 5554 5549 5543 5539 5535 5531 5527 5522 5518 5514 5510 5506 5502 5495 5493 5490 5486 5482 5478 5475 5473 5472 5468
5602 5601 5599 5595 5591 5588 5584 5580 5576 5572 5568 5564 5560 5556 5551 5546 5541 5536 5531 5526 5522 5518 5513 5509 5505 5502 5500 5497 5490 5481 5479 5476 5472 5469 5465 5462 5461 5458
5597 5595 5593 5590 5586 5582 5578 5574 5570 5565 5561 5557 5553 5548 5543 5538 5533 5528 5523 5518 5514 5509 5504 5500 5495 5491 5487 5484 5481 5475 5467 5464 5462 5459 5456 5453 5451 5447
5592 5589 5586 5583 5579 5575 5571 5567 5563 5559 5554 5549 5545 5540 5536 5531 5526 5520 5515 5508 5504 5500 5496 5492 5486 5479 5476 5473 5471 5467 5461 5454 5449 5446 5444 5443 5442 5440
5586 5583 5579 5576 5572 5568 5564 5560 5556 5552 5547 5542 5538 5533 5528 5522 5517 5511 5506 5501 5497 5492 5487 5482 5476 5472 5468 5465 5463 5459 5454 5448 5443 5438 5433 5430 5428 5429
5580 5576 5573 5569 5565 5561 5557 5553 5549 5545 5540 5535 5530 5525 5519 5514 5509 5503 5498 5493 5488 5483 5478 5474 5469 5464 5460 5456 5452 5449 5445 5440 5437 5434 5430 5424 5419 5415